Location: Ajisawe
(8.4333°N, 4.3833°E)
Time: 02:01:34
(UTC+00:00)

Courier 1B Rocket - Pass Details

Date: 23 April 2021
Orbit: 920 x 1202 km, 28.3° (Epoch: 13 May)

Event Time Altitude Azimuth Distance (km) Brightness Sun altitude
Rises 02:18:35 0° 285° (WNW) 4,034 - -45.5°
Reaches altitude 10° 02:21:35 10° 277° (W) 3,096 - -44.9°
Maximum altitude 02:28:42 40° 211° (SSW) 1,699 - -43.3°
Drops below altitude 10° 02:35:53 10° 144° (SE) 3,115 - -41.7°
Exits shadow 02:36:13 - 143° (SE) 3,215 7.8 -41.6°
Sets 02:38:55 0° 137° (SE) 4,060 8.4 -41.0°
